Dewpoint
68 69 67 68 69 68 68 69 68 69 71 70 69 69 70 70 70 70 70 69 70 70
68 69 68 68 68 68 68 67 69 72 71 70 69 70 70 69 68 69 69 69 69 69
68 69 69 69 69 67 67 67 69 69 68 67 69 71 71 69 69 67 65 67 68 68
68 68 69 68 68 68 69 68 68 69 68 69 70 71 70 69 70 68 66 66 67 68
69 69 69 69 68 68 67 69 69 70 69 70 70 70 69 69 70 69 68 68 68 68
68 68 69 69 69 69 68 69 69 69 70 69 70 70 69 69 69 69 69 70 69 68
68 68 69 69 69 69 69 69 69 70 70 69 70 70 69 69 69 70 70 70 69 69
66 65 66 67 69 69 70 69 69 69 69 69 67 67 66 67 68 69 70 70 70 69
67 66 65 67 67 68 69 69 68 68 66 64 64 62 63 65 67 69 70 69 70 70
67 66 65 67 67 67 67 68 66 65 64 62 62 61 61 64 67 69 67 67 69 70
66 65 65 67 67 66 67 67 65 64 63 61 60 58 59 61 68 63 61 63 64 66
66 65 65 66 67 67 65 65 64 64 62 60 59 57 58 61 66 61 59 59 59 61
67 67 67 67 66 65 63 61 60 59 59 57 58 56 56 59 65 60 58 58 57 57
65 65 65 64 64 62 61 59 58 56 56 56 54 55 54 56 64 60 58 56 56 55
Lifted_Index
-2 -2 -2 -2 -2 -2 -2 -2 -3 -3 -3 -3 -3 -3 -3 -3 -3 -3 -3 -3 -3 -3
-2 -2 -2 -2 -2 -2 -2 -2 -2 -3 -3 -3 -3 -3 -3 -3 -3 -3 -3 -3 -3 -3
-3 -2 -2 -2 -2 -2 -2 -2 -2 -2 -3 -2 -3 -3 -3 -3 -3 -3 -2 -3 -3 -3
-3 -2 -2 -2 -2 -2 -2 -2 -2 -2 -2 -2 -3 -3 -3 -3 -3 -3 -2 -2 -2 -3
-2 -2 -2 -2 -2 -2 -2 -2 -2 -2 -2 -2 -3 -3 -3 -3 -3 -3 -3 -3 -2 -2
-2 -2 -2 -2 -2 -2 -2 -2 -2 -2 -3 -3 -3 -3 -3 -3 -3 -3 -3 -3 -3 -3
-2 -2 -2 -2 -3 -3 -2 -2 -3 -3 -3 -3 -3 -3 -3 -3 -3 -3 -3 -3 -3 -3
-2 -2 -2 -2 -2 -3 -3 -3 -3 -3 -3 -3 -3 -3 -3 -3 -3 -3 -3 -4 -3 -3
-1 -1 -2 -2 -2 -2 -2 -2 -2 -3 -3 -2 -2 -2 -2 -2 -2 -3 -3 -3 -3 -3
-1 -1 -1 -1 -1 -2 -2 -2 -2 -2 -2 -2 -2 -2 -1 -2 -2 -2 -2 -2 -2 -2
-0 -0 -0 -0 -1 -1 -1 -1 -1 -1 -1 -1 -1 -1 -1 -1 -1 -1 -1 -1 -1 -1
-0 -0 -0 -0 -1 -1 -1 -1 -1 -1 -1 -0 -1 -1 -1 -1 -1 -1 -1 -1 -0 -0
-0 -0 -0 -0 -0 -1 -1 -1 -1 -1 -0 -0 -0 -0 -0 -0 -0 -0 -0 -0 0 1
-0 -0 -1 -1 -1 -1 -1 -1 -1 -0 -0 -0 0 1 1 0 -0 -0 -0 0 1 1